Regional Weather Roundup
Issued by NWS

Home | Current Version | Previous Version | Graphics & Text | Print | Product List | Glossary On
Versions: 1 2 3 4 5 6 7 8 9 10 11 12 13 14 15 16 17 18 19 20 21 22 23 24 25 26 27 28 29 30 31 32 33 34 35 36 37 38 39 40 41 42 43 44 45 46 47 48 49 50
000
ASUS43 KLOT 261306
RWRIL

ILLINOIS REGIONAL WEATHER ROUNDUP
NATIONAL WEATHER SERVICE CHICAGO/ROMEOVILLE IL
700 AM CST MON JAN 26 2015

NOTE: "FAIR" INDICATES FEW OR NO CLOUDS BELOW 12,000 FEET WITH NO
SIGNIFICANT WEATHER AND/OR OBSTRUCTIONS TO VISIBILITY.

* THESE STATIONS ARE NOT UNDER NWS QUALITY CONTROL. THEY ALSO MAY NOT
  REPORT WEATHER SUCH AS PRECIPITATION OR FOG.

ILZ001-002-007-009-015-016-024-261400-
NORTHWEST ILLINOIS

CITY           SKY/WX    TMP DP  RH WIND       PRES   REMARKS
MOLINE         CLOUDY    19  14  81 CALM      29.99R
STERLING*      MOCLDY    18  12  79 CALM      29.98S
SAVANNA*       CLOUDY    19  15  86 SE5       29.96F WCI  12
$$

ILZ003-004-008-010-011-017-018-261400-
NORTH CENTRAL ILLINOIS

CITY           SKY/WX    TMP DP  RH WIND       PRES   REMARKS
ROCKFORD       CLOUDY    15  10  80 CALM      29.99R
FREEPORT*      MOCLDY    14  11  87 CALM      29.97S
ROCHELLE*      MOCLDY    15  11  85 CALM      29.98R
DE KALB*       PTCLDY    13  10  87 CALM      29.96S
PERU*          PTCLDY    17  14  89 W7        30.01R WCI   7
$$

ILZ005-006-012>014-019>023-261400-
NORTHEAST ILLINOIS

CITY           SKY/WX    TMP DP  RH WIND       PRES   REMARKS
CHICAGO-OHARE  MOCLDY    16  12  84 NW5       29.95S WCI   9
CHICAGO-MIDWAY PTCLDY    23  16  74 CALM      29.96S
AURORA         PTCLDY    15  10  80 NW3       29.97F
LANSING*       CLEAR     15  11  85 CALM      29.98R
JOLIET*        PTCLDY    16  13  88 CALM      29.97F
WAUKEGAN       MOCLDY    14  11  87 W3        29.94F
DUPAGE AIRPORT PTCLDY    13  10  88 CALM      29.95F
KANKAKEE*      CLEAR     19  16  87 CALM      29.97F
WHEELING       PTCLDY    15  11  83 CALM      29.97F
MORRIS*        PTCLDY    15  13  90 CALM      29.97R
ROMEOVILLE*    PTCLDY    16  13  89 N3        29.96F
NORTHERLY ISL    N/A     23  15  71 NE7         N/A  WCI  15
$$

LMZ740>746-261400-
SOUTHERN LAKE MICHIGAN

STATION/POSITION SKY/WX   TEMP    WIND        PRES    VSBY  WAVE
                          AIR SEA DIR/SP/G                  HT/PER
                          (F)     (DEG/KT/KT) (MB)    (MI)  (FT/S)
WAUKEGAN HARBOR            18      CALM  /  2   N/A
HARRISON CRIB              23      80/  3/  6   N/A
BURNHAM HARBOR             23      80/  4/  7   N/A
CALUMET HARBOR             20     190/  5/  6   N/A
MICHIGAN CITY              16      70/  4/  5   N/A
$$

ILZ025>027-034>036-040-047-049-050-058-095>099-261400-
WEST-CENTRAL ILLINOIS

CITY           SKY/WX    TMP DP  RH WIND       PRES   REMARKS
QUINCY         CLOUDY    26  22  84 S8        29.99F WCI  18
GALESBURG*     CLOUDY    20  17  88 CALM      29.99R
MACOMB*        CLOUDY    22  20  91 S3        30.02F
JACKSONVILLE*  CLOUDY    24  20  83 W5        30.02F WCI  18
PITTSFIELD*    CLOUDY    28  24  86 SW5       30.02F WCI  22
$$

ILZ028>032-037-038-041>044-048-051>054-059>061-261400-
CENTRAL ILLINOIS

CITY           SKY/WX    TMP DP  RH WIND       PRES   REMARKS
PONTIAC        PTCLDY    20  17  88 W3        29.98F
BLOOMINGTON    PTCLDY    19  16  88 NW7       29.99R WCI  10
DECATUR        MOCLDY    22  21  96 NW7       30.00R WCI  13
PEORIA         CLOUDY    20  14  77 CALM      30.01R
LACON*         MOCLDY    18  12  80 CALM      30.01R
LINCOLN*       MOCLDY    23  18  83 W5        30.02S WCI  16
SPRINGFIELD    MOCLDY    22  17  81 W6        30.01F WCI  14
TAYLORVILLE    PTCLDY    23  19  86 NW7       30.02S WCI  15
$$

ILZ033-039-045-046-055>057-062-063-261400-
EAST-CENTRAL ILLINOIS

CITY           SKY/WX    TMP DP  RH WIND       PRES   REMARKS
CHAMPAIGN      CLOUDY    25  20  81 NW9       29.98R WCI  15
DANVILLE*      CLOUDY    23  19  83 NW10      29.95R WCI  12
RANTOUL*       CLOUDY    26  21  81 NW6       29.98R WCI  19
MATTOON        CLOUDY    26  22  84 NW13      29.98R WCI  15
PARIS*         CLOUDY    27  24  89 NE3       29.97R
$$

ILZ079-100>102-261400-
SOUTHWEST ILLINOIS

CITY           SKY/WX    TMP DP  RH WIND       PRES   REMARKS
ALTON          MOCLDY    25  21  86 W10       30.06R WCI  15
BELLEVILLE     CLEAR     23  22  93 NW5       30.05R WCI  17
CAHOKIA*       MOCLDY    28  22  78 W9        30.07R WCI  19
SPARTA*        CLEAR     25  21  84 NW5       30.05R WCI  19
$$

ILZ064>066-069>071-074>076-080>082-084>086-088>090-092>094-261400-
SOUTH-CENTRAL ILLINOIS

CITY           SKY/WX    TMP DP  RH WIND       PRES   REMARKS
CARBONDALE     CLEAR     26  20  77 NW6       30.04S WCI  19
CAIRO*         CLEAR     32  26  78 NW8       30.05S WCI  25
EFFINGHAM*     CLOUDY    28  22  79 W10       30.02R WCI  18
MARION         CLOUDY    28  23  80 NW9       30.04S WCI  20
MT. VERNON     CLOUDY    27  19  74 NW3       30.02R
CENTRALIA*     PTCLDY    25  20  80 NW8       30.04R WCI  16
SALEM*         CLOUDY    28  22  80 NW10      30.03R WCI  18
METROPOLIS*    PTCLDY    29  26  86 NW7       30.03S WCI  22
$$

ILZ067-068-072-073-078-083-087-091-261400-
SOUTHEAST ILLINOIS

CITY           SKY/WX    TMP DP  RH WIND       PRES   REMARKS
LAWRENCEVILLE  CLOUDY    29  25  85 NW7       29.99R WCI  22
FLORA*         CLOUDY    28  25  86 NW8       30.01R WCI  20
FAIRFIELD*     CLOUDY    29  25  83 NW3       30.01R
HARRISBURG*    CLOUDY    30  24  80 NW8       30.03S WCI  22
ROBINSON*      CLOUDY    28  25  86 NW5       29.99S WCI  23
CARMI*         CLOUDY    32  28  86 NW12      30.00S WCI  23
$$

ABBREVIATIONS USED IN REMARKS
   TC - TEMPERATURE IN CELSIUS
  WCI - WIND CHILL INDEX
   HX - HEAT INDEX
  VSB - VISIBILITY
$$




USA.gov is the U.S. government's official web portal to all federal, state and local government web resources and services.